Powrót do katalogu

COSMOS 1275 DEB

AktywnyPO
NORAD 12759·DEBRIS·🇷🇺 Russia

Wystrzelony Jun 4, 1981 z Plesetsk Cosmodrome

Loading…

Następne Przeloty (najbliższe 24 godziny)

TLE

ŚwieżeSource: Space-Track

Epoka: Sep 14, 2026, 05:58 UTC

1 12759U 81053DC  26257.24898920  .00000564  00000-0  33709-3 0  9995
2 12759  82.8647 344.0995 0043696 353.0793  35.5485 14.05148483294769

Śledź COSMOS 1275 DEB w czasie rzeczywistym z AllMySat

Download on the App Store